Change the Weather History Date:

Thursday, February 23, 2012

  Actual Average Record
Temperature  
Mean Temperature 63 °F 49 °F  
Max Temperature 68 °F 59 °F 70 °F (1955)
Min Temperature 57 °F 40 °F 25 °F (1999)
Degree Days  
Heating Degree Days 2 16  
Month to date heating degree days 322 403  
Since 1 July heating degree days 1520 1871  
Cooling Degree Days 0 0  
Month to date cooling degree days 0 0  
Year to date cooling degree days 0 0  
Growing Degree Days 12 (Base 50)    
Moisture  
Dew Point 58 °F    
Average Humidity 87    
Maximum Humidity 97    
Minimum Humidity 76    
Precipitation  
Precipitation 0.00 in 0.13 in 0.43 in (2006)
Month to date precipitation 1.82 2.81  
Year to date precipitation 3.06 6.50  
Sea Level Pressure  
Sea Level Pressure 29.72 in    
Wind  
Wind Speed 15 mph (SW)    
Max Wind Speed 23 mph    
Max Gust Speed 29 mph    
Visibility 8 miles    
Events      
T = Trace of Precipitation, MM = Missing Value Source: NWS Daily Summary

Daily Weather History Graph

Daily Weather History Graph

Search for Another Location

Airport or City:

Trip Planner

Search our weather history database for the weather conditions in past years. The results will help you decide how hot, cold, wet, or windy it might be!

Date:

Astronomy

Feb. 23, 2012 Rise Set
Actual Time 6:51 AM EST 6:05 PM EST
Civil Twilight 6:25 AM EST 6:31 PM EST
Nautical Twilight 5:56 AM EST 7:00 PM EST
Astronomical Twilight 5:28 AM EST 7:29 PM EST
Moon 7:24 AM EST (2/23) 8:00 PM EST (2/23)
Length of Visible Light 12h 05m
Length of Day
11h 14m
Waxing Crescent, 3% of the Moon is Illuminated
Feb 23
Waxing Crescent
Feb 29
First Quarter
Mar 8
Full
Mar 14
Last Quarter
Mar 22
New

Hourly Weather History & Observations

Time (EST) Temp. Dew Point Humidity Pressure Visibility Wind Dir Wind Speed Gust Speed Precip Events Conditions
12:53 AM 59.0 °F 55.9 °F 90% 29.69 in 9.0 mi SW 11.5 mph - N/A   Clear
1:53 AM 57.9 °F 55.9 °F 93% 29.68 in 8.0 mi SW 13.8 mph - N/A   Clear
2:53 AM 61.0 °F 57.9 °F 90% 29.69 in 10.0 mi SW 10.4 mph - N/A   Partly Cloudy
3:34 AM 59.0 °F 57.2 °F 94% 29.68 in 8.0 mi SSW 8.1 mph - N/A   Mostly Cloudy
3:53 AM 60.1 °F 57.0 °F 90% 29.68 in 9.0 mi SSW 9.2 mph - N/A   Partly Cloudy
4:12 AM 57.2 °F 57.2 °F 100% 29.68 in 7.0 mi SSW 8.1 mph - N/A   Mostly Cloudy
4:53 AM 59.0 °F 57.0 °F 93% 29.69 in 7.0 mi SW 9.2 mph - N/A   Overcast
5:45 AM 57.2 °F 55.4 °F 94% 29.70 in 8.0 mi SSW 9.2 mph - N/A   Overcast
5:53 AM 57.9 °F 55.9 °F 93% 29.70 in 7.0 mi SW 8.1 mph - N/A   Mostly Cloudy
6:08 AM 57.2 °F 55.4 °F 94% 29.71 in 7.0 mi SW 11.5 mph - N/A   Scattered Clouds
6:53 AM 57.0 °F 55.9 °F 96% 29.73 in 6.0 mi SW 10.4 mph - N/A   Scattered Clouds
7:48 AM 59.0 °F 57.2 °F 94% 29.73 in 5.0 mi SW 15.0 mph - N/A   Mostly Cloudy
7:53 AM 59.0 °F 57.0 °F 93% 29.74 in 4.0 mi SW 13.8 mph - N/A   Mostly Cloudy
8:03 AM 59.0 °F 57.2 °F 94% 29.74 in 2.5 mi SW 12.7 mph - N/A   Mostly Cloudy
8:53 AM 61.0 °F 59.0 °F 93% 29.77 in 3.0 mi SW 13.8 mph - N/A   Overcast
9:16 AM 62.6 °F 60.8 °F 94% 29.77 in 9.0 mi SW 13.8 mph - N/A   Overcast
9:53 AM 63.0 °F 60.1 °F 90% 29.77 in 4.0 mi SW 16.1 mph - N/A   Mostly Cloudy
10:01 AM 64.4 °F 59.0 °F 83% 29.77 in 10.0 mi SW 15.0 mph - N/A   Mostly Cloudy
10:28 AM 66.2 °F 60.8 °F 83% 29.76 in 10.0 mi SW 15.0 mph - N/A   Mostly Cloudy
10:53 AM 66.9 °F 60.1 °F 79% 29.76 in 10.0 mi SW 12.7 mph - N/A   Mostly Cloudy
11:53 AM 68.0 °F 60.1 °F 76% 29.75 in 10.0 mi SSW 15.0 mph - N/A   Partly Cloudy
12:53 PM 68.0 °F 60.1 °F 76% 29.73 in 10.0 mi SW 13.8 mph - N/A   Partly Cloudy
1:53 PM 66.9 °F 59.0 °F 76% 29.70 in 10.0 mi SSW 15.0 mph - N/A   Scattered Clouds
2:53 PM 64.9 °F 59.0 °F 81% 29.70 in 10.0 mi SW 18.4 mph - N/A   Partly Cloudy
3:53 PM 64.9 °F 57.9 °F 78% 29.69 in 9.0 mi SW 19.6 mph - N/A   Clear
4:53 PM 63.0 °F 57.9 °F 84% 29.69 in 8.0 mi SW 20.7 mph - N/A   Clear
5:53 PM 64.0 °F 57.9 °F 80% 29.70 in 7.0 mi SW 18.4 mph - N/A   Clear
6:53 PM 61.0 °F 57.9 °F 90% 29.72 in 7.0 mi SW 17.3 mph - N/A   Clear
7:53 PM 61.0 °F 59.0 °F 93% 29.72 in 6.0 mi SW 17.3 mph - N/A   Clear
8:53 PM 61.0 °F 57.9 °F 90% 29.73 in 6.0 mi SW 17.3 mph - N/A   Clear
9:53 PM 61.0 °F 57.9 °F 90% 29.74 in 7.0 mi SW 18.4 mph - N/A   Clear
10:53 PM 61.0 °F 57.9 °F 90% 29.73 in 7.0 mi SW 17.3 mph - N/A   Clear
11:53 PM 62.1 °F 59.0 °F 90% 29.73 in 7.0 mi SW 19.6 mph - N/A   Clear